{"data":{"norad_id":39249,"intl_designator":"2013-048A","name":"GONETS-M 5","alt_names":[],"object_type":"PAYLOAD","status":"ACTIVE","operator":null,"country":"CIS","launch_date":"2013-09-11","launch_site_code":"PLMSC","launch_vehicle":null,"mission":null,"orbit_class":"UNKNOWN","rcs_meters":1.678,"size_class":null,"mass_kg":null,"dimensions":null,"purposes":[],"wikipedia_slug":null,"has_3d_model":false,"image_url":null,"decayed_at":null,"tle_current":{"epoch":"2026-09-20T04:21:20.823264Z","epoch_age_seconds":61098,"freshness":"FRESH","line1":"1 39249U 13048A   26263.18149101 -.00000056  00000+0 -47802-3 0  9993","line2":"2 39249  82.4784 284.1633 0016675  10.6230 349.5198 12.42894098590680","mean_motion":12.42894098,"eccentricity":0.0016675,"inclination_deg":82.4784,"raan_deg":284.1633,"arg_perigee_deg":10.623,"mean_anomaly_deg":349.5198,"bstar":-0.00047802,"rev_number":59068,"period_min":115.85862402253,"perigee_km":1481.2311699477,"apogee_km":1507.4859426279,"semimajor_km":7872.4955562878,"source":"CELESTRAK","updated_at":"2026-09-20T09:00:13.920405Z"}}}